Regional Weather Roundup
Issued by NWS Upton, NY

Home | Current Version | Previous Version | Text Only | Print | Product List | Glossary On
Versions: 1 2 3 4 5 6 7 8 9 10 11 12 13 14 15 16 17 18 19 20 21 22 23 24 25 26 27
000
ASUS41 KOKX 171905
RWROKX
REGIONAL WEATHER ROUNDUP
NATIONAL WEATHER SERVICE NEW YORK NY
300 PM EDT THU APR 17 2014

NOTE: "FAIR" INDICATES FEW OR NO CLOUDS BELOW 12,000 FEET WITH NO
SIGNIFICANT WEATHER AND/OR OBSTRUCTIONS TO VISIBILITY.

NYZ071-072-176-178-NJZ106-104-172000-
NEW YORK CITY METRO AREA


CITY           SKY/WX    TMP DP  RH WIND       PRES   REMARKS
CENTRAL PARK   CLOUDY    48  25  40 E6        30.72S
LAGUARDIA APRT PTSUNNY   44  24  45 NE9       30.70F
KENNEDY INTL   PTSUNNY   46  29  51 SE18G24   30.71F
NEWARK/LIBERTY PTSUNNY   45  31  58 SE9G21    30.70F
TETERBORO      MOSUNNY   48  26  42 SE9       30.68F
$$

NYZ177-179-078>081-172000-
LONG ISLAND NEW YORK

CITY           SKY/WX    TMP DP  RH WIND       PRES   REMARKS
FARMINGDALE    SUNNY     44  29  55 E13       30.70F
ISLIP          PTSUNNY   46  29  51 SE18G25   30.68F
SHIRLEY        SUNNY     44  29  55 E13G22    30.70F
WESTHAMPTON    SUNNY     44  27  51 E13G24    30.72F
MONTAUK POINT    N/A     45  27  49 E10G24    30.72F
$$

NYZ052-065-067-172000-
HUDSON VALLEY

CITY           SKY/WX    TMP DP  RH WIND       PRES   REMARKS
WHITE PLAINS   MOSUNNY   46  13  26 E9        30.67F
NEWBURGH       NOT AVBL
MONTGOMERY     SUNNY     51  18  27 VRB6      30.64F
POUGHKEEPSIE   SUNNY     51  20  29 SE8       30.65F
ALBANY         PTSUNNY   50  14  23 SE7       30.66F
$$

NJZ001-105-106-008-010-013-015-019>022-104-172000-
NEW JERSEY

CITY           SKY/WX    TMP DP  RH WIND       PRES   REMARKS
NEWARK/LIBERTY PTSUNNY   45  31  58 SE9G21    30.70F
TETERBORO      MOSUNNY   48  26  42 SE9       30.68F
CALDWELL       PTSUNNY   46  29  51 SE12      30.69S
MORRISTOWN     NOT AVBL
SOMERVILLE     NOT AVBL
LINDEN         CLOUDY    46  30  55 SE12      30.73S
SUSSEX         SUNNY     51  22  31 SE12      30.63F
ANDOVER          N/A     48  21  34 CALM      30.64F
TRENTON        PTSUNNY   47  28  47 SE8G21    30.66F
MILLVILLE      MOSUNNY   49  32  52 E13       30.65F
ATLANTIC CITY  CLOUDY    45  31  58 E15       30.66F
WRIGHTSTOWN    CLOUDY    45  30  55 E13G20    30.66S
TOMS RIVER     CLOUDY    43  28  56 E6        30.69F
BELMAR         PTSUNNY   43  27  52 E15       30.69S
$$

PAZ047>061-062-071-172000-
EASTERN PENNSYLVANIA

CITY           SKY/WX    TMP DP  RH WIND       PRES   REMARKS
PHILADELPHIA   MOSUNNY   53  27  36 E12G22    30.66S
ALLENTOWN      SUNNY     52  22  30 SE9       30.63F
SCRANTON       MOSUNNY   52  16  24 S8        30.56F
$$

CTZ002-004>006-009-010-012-RIZ004-006-007-MAZ004-011-015-172000-
SOUTHERN NEW ENGLAND
 IN CT

CITY           SKY/WX    TMP DP  RH WIND       PRES   REMARKS
BRADLEY INTL   PTSUNNY   49  19  30 SE6       30.68F
HARTFORD       SUNNY     49  20  31 S6        30.69F
DANBURY        SUNNY     49  22  34 VRB5      30.67F
WTRBRY/OXFORD  MOSUNNY   46  25  42 SE6G16    30.69F
BRIDGEPORT     SUNNY     44  26  49 SE12      30.71F
MERIDEN        SUNNY     50  21  32 NE7       30.68F
NEW HAVEN      SUNNY     45  27  49 SE9       30.71F
CHESTER        FAIR      45  28  53 SE14      30.68F
GROTON         SUNNY     44  30  57 SE21G29   30.69F
WILLIMANTIC    SUNNY     47  19  33 E9G17     30.70F

 IN RI

CITY           SKY/WX    TMP DP  RH WIND       PRES   REMARKS
PROVIDENCE     PTSUNNY   44  23  43 E14       30.73F
BLOCK ISLAND   MOSUNNY   41  28  60 E18G26    30.71F
WESTERLY       SUNNY     44  29  55 E18G24    30.71F

 IN MA

CITY           SKY/WX    TMP DP  RH WIND       PRES   REMARKS
BOSTON         MOSUNNY   40  26  57 E16       30.79S WCI  31
WORCESTER      SUNNY     42  19  39 NE9G18    30.69F
WESTFIELD      SUNNY     48  19  31 VRB6      30.69F
PROVINCETOWN   CLOUDY    39  27  60 MISG      30.77F
NANTUCKET      CLOUDY    40  26  57 NE18G28   30.71F WCI  31
$$

ANZ330-335-338-340-345-350-353-355-172000-
COASTAL MARINE OBSERVATIONS


STATION/POSITION TIME  SKY/WX   TEMP    WIND        PRES    VSBY  WAVE
                                AIR SEA DIR/SP/G                  HT/PER
                 (UTC)          (F)     (DEG/KT/KT) (MB)    (MI)  (FT/S)
NY HARB ENTRANCE 1900            39 43  100/ 17/ 21 1039.4
4S FIRE IS       1800               44                N/A           7/ 7
23SW MTP         1900            39 42   70/ 19/ 21 1039.4          7/ 7
HUDSON CANYON    1800            40 45   50/ 21/ 25 1037.8          9/ 8
EXECUTION ROCKS  1900            42 42   50/ 16/ 19   N/A
WESTERN LI SOUND 1900            41      70/ 10/ 12   N/A           1/ 5
CENTRAL LI SOUND 1800            41 42  110/ 12/ 16   N/A           1/ 2
EASTERN LI SOUND NOT AVBL
ROBBINS REEF     1900            40     140/ 13/ 19   N/A
$$


>>>>>>>>>>>>>>>>>>>>>>>>>>>> KEY <<<<<<<<<<<<<<<<<<<<<<<<<<<
>                                                          <
>     SKY/WX - SKY CONDITION/PRESENT WEATHER               <
>     TMP    - TEMPERATURE IN FAHRENHEIT                   <
>     DP     - DEWPOINT IN FAHRENHEIT                      <
>     RH     - RELATIVE HUMIDITY IN PERCENT                <
>     WIND   - DIRECTION AND SPEED IN MPH                  <
>     PRES   - MEAN SEA LEVEL PRESSURE IN INCHES OF HG     <
>     WCI    - WIND CHILL INDEX                            <
>     VSB    - VISIBILITY IN MILES                         <
>     HX     - HEAT INDEX                                  <
>     TC     - TEMPERATURE IN CELSIUS                      <
>     VRB    - VARIABLE WIND DIRECTION                     <
>                                                          <
>>>>>>>>>>>>>>>>>>>>>>>>>>>> KEY <<<<<<<<<<<<<<<<<<<<<<<<<<<





USA.gov is the U.S. government's official web portal to all federal, state and local government web resources and services.